Location: Sternwarte ZA, Rosenfeld-Brittheim
(48.2889°N, 8.6789°E)
Time: 05:23:59
(UTC+02:00)

ISS - Pass Details

Date: 31 March 2020
Orbit: 417 x 423 km, 51.6° (Epoch: 29 March)

Event Time Altitude Azimuth Distance (km) Brightness Sun altitude
Rises 21:44:31 0° 292° (WNW) 2,363 1.7 -18.0°
Reaches altitude 10° 21:46:38 10° 289° (WNW) 1,497 0.3 -18.3°
Maximum altitude 21:49:58 63° 208° (SSW) 469 -3.6 -18.8°
Enters shadow 21:50:14 60° 178° (S) 483 -3.7 -18.9°
